DECAYED

ARIANE 5 DEB (SYLDA), 44336 (Decayed)

Orbit data source: Space-Track

ARIANE 5 DEB (SYLDA), 44336 was space debris in LEO originally from a launch on Thu, 20 Jun 2019 UTC launched from the French Guiana (FRGUI). Debris objects in space refer to the collection of defunct objects orbiting the Earth. Examples of debris include non-operational satellites, rocket bodies, and fragments generated from explosions, collisions, or faulty payload assembly.

Not visible in the next 10 days
Identifier
44336, 2019-034D
Orbit
Decayed
Country
Flag of FRFR
Related business
Manufacturer
ADS/Bremen
Mission
Decayed spacecraft
Bus & Motor
SYLDA 5, Unknown motor
Mass
440 kg wet, 440 kg dry
Launch date (UTC)
2019-06-20 (7 years ago)
Launch vehicle
Unknown
Launch site
French Guiana (FRGUI)
Object type
Payload
Rocket body
Debris
Shape & HBR
Cyl, 2.8 m
Radar Cross Section
27.391 m², Large (>1 m²)

Expand to show TLE details & history
Last TLE update: 7 months ago

TLE from 7 months ago
0 ARIANE 5 DEB (SYLDA)
1 44336U 19034D   25323.09025215  .07223865 -21969-4  50940-2 0  9991
2 44336   5.8888 322.7249 0993987 342.9897  13.9125 14.03926086 83905
Epoch: 2025-11-19T02:09Z
TLE epoch observation values (Epoch: 2025-11-19T02:09:57.785Z)
Latitude
-0°
Longitude
-128.13286°
Altitude
182.046 km
Speed
8.164 km/s
True Right ascension
21h 30m 53s
True Declination
0° 00' 00"
Sunlit
Object was in daylight at epoch
Visualization orbit readout
Latitude
Unknown
Longitude
Unknown
Altitude
Unknown
Speed
Unknown
Apparent Right ascension
Unknown
Apparent Declination
Unknown
Sunlit
N/A
Visualization observer readout
Local Sidereal Time
21:27:18
Azimuth
Unknown
Elevation
Unknown
Doppler factor
Unknown
Orbital elements
Apogee altitude
1,608.377 km
Perigee altitude
164.226 km
Semi-major axis
7,264.438 km
Eccentricity
0.0994
Inclination
5.8888°
RAAN
322.7249°
Arg. of periapsis
342.9897°
True anomaly
17.0228°
Mean anomaly
13.9125°
Eccentric anomaly
15.42751°
Mean motion
3.50542 °/min
Orbital period
102.7 mins
BSTAR
0.005094
Loading maneuver chart data...
Computing Atmospheric mass density...
Loading historical data...
Loading historical data...
Loading historical data...
Loading historical data...
Loading historical data...
Loading historical data...
Loading historical data...
Other satellites on launch #34 in the year 2019 (2019-06-20 UTC)

Documentation

Showing up to 5 results
|